| time (UTC) | temp F | wind direction | speed MPH | gust MPH | rain 1hr in | rain 24hr in | rain mn in | humidity % | barometer mb |
| 20260510200755 | 57 | 0 | 0.0 | 0.0 | 0.00 | 0.00 | 0.00 | 4 | 1010.8 |
| 20260510200255 | 57 | 0 | 0.0 | 0.0 | 0.00 | 0.00 | 0.00 | 4 | 1010.6 |
| 20260510195754 | 58 | 264 | 0.0 | 1.0 | 0.00 | 0.00 | 0.00 | 4 | 1010.7 |
| 20260510195254 | 58 | 199 | 1.0 | 2.0 | 0.00 | 0.00 | 0.00 | 4 | 1010.8 |
| 20260510194754 | 58 | 182 | 0.0 | 2.0 | 0.00 | 0.00 | 0.00 | 4 | 1010.7 |
| 20260510194253 | 58 | 0 | 0.0 | 0.0 | 0.00 | 0.00 | 0.00 | 4 | 1010.8 |
| 20260510193753 | 58 | 215 | 0.0 | 1.0 | 0.00 | 0.00 | 0.00 | 4 | 1010.9 |
| 20260510193253 | 58 | 0 | 0.0 | 0.0 | 0.00 | 0.00 | 0.00 | 4 | 1010.7 |
| 20260510192752 | 59 | 0 | 0.0 | 0.0 | 0.00 | 0.00 | 0.00 | 4 | 1011.0 |
| 20260510192252 | 59 | 0 | 0.0 | 0.0 | 0.00 | 0.00 | 0.00 | 4 | 1010.7 |
| 20260510191752 | 59 | 0 | 0.0 | 0.0 | 0.00 | 0.00 | 0.00 | 4 | 1010.8 |
| 20260510191251 | 59 | 0 | 0.0 | 0.0 | 0.00 | 0.00 | 0.00 | 4 | 1010.8 |
| 20260510190751 | 59 | 193 | 0.0 | 1.0 | 0.00 | 0.00 | 0.00 | 4 | 1011.0 |
| 20260510190251 | 59 | 0 | 0.0 | 0.0 | 0.00 | 0.00 | 0.00 | 4 | 1010.7 |
| 20260510185750 | 59 | 0 | 0.0 | 0.0 | 0.00 | 0.00 | 0.00 | 4 | 1010.9 |
| 20260510185250 | 59 | 0 | 0.0 | 0.0 | 0.00 | 0.00 | 0.00 | 4 | 1010.8 |
| 20260510184750 | 59 | 0 | 0.0 | 0.0 | 0.00 | 0.00 | 0.00 | 4 | 1010.6 |
| 20260510184249 | 59 | 0 | 0.0 | 0.0 | 0.00 | 0.00 | 0.00 | 4 | 1010.7 |
| 20260510183749 | 60 | 0 | 0.0 | 0.0 | 0.00 | 0.00 | 0.00 | 4 | 1010.6 |
| 20260510183249 | 60 | 0 | 0.0 | 0.0 | 0.00 | 0.00 | 0.00 | 4 | 1010.5 |
| 20260510182748 | 60 | 0 | 0.0 | 0.0 | 0.00 | 0.00 | 0.00 | 4 | 1010.5 |
| 20260510182248 | 61 | 0 | 0.0 | 0.0 | 0.00 | 0.00 | 0.00 | 4 | 1010.6 |
| 20260510181748 | 61 | 0 | 0.0 | 0.0 | 0.00 | 0.00 | 0.00 | 4 | 1010.6 |
| 20260510181247 | 61 | 0 | 0.0 | 0.0 | 0.00 | 0.00 | 0.00 | 4 | 1010.7 |
| 20260510180747 | 61 | 0 | 0.0 | 0.0 | 0.00 | 0.00 | 0.00 | 4 | 1010.7 |
| 20260510180247 | 61 | 0 | 0.0 | 0.0 | 0.00 | 0.00 | 0.00 | 3 | 1010.6 |
| 20260510175746 | 62 | 0 | 0.0 | 0.0 | 0.00 | 0.00 | 0.00 | 3 | 1010.6 |
| 20260510175246 | 62 | 0 | 0.0 | 0.0 | 0.00 | 0.00 | 0.00 | 3 | 1010.4 |
| 20260510174746 | 63 | 0 | 0.0 | 0.0 | 0.00 | 0.00 | 0.00 | 3 | 1010.6 |
| 20260510174245 | 63 | 0 | 0.0 | 0.0 | 0.00 | 0.00 | 0.00 | 3 | 1010.7 |
| 20260510173745 | 64 | 0 | 0.0 | 0.0 | 0.00 | 0.00 | 0.00 | 3 | 1010.7 |
| 20260510173245 | 64 | 0 | 0.0 | 0.0 | 0.00 | 0.00 | 0.00 | 3 | 1010.7 |
| 20260510172745 | 64 | 0 | 0.0 | 0.0 | 0.00 | 0.00 | 0.00 | 3 | 1010.7 |
| 20260510172244 | 64 | 0 | 0.0 | 0.0 | 0.00 | 0.00 | 0.00 | 3 | 1010.5 |
| 20260510171744 | 65 | 0 | 0.0 | 0.0 | 0.00 | 0.00 | 0.00 | 3 | 1010.7 |
| 20260510171243 | 65 | 289 | 0.0 | 1.0 | 0.00 | 0.00 | 0.00 | 3 | 1010.7 |
| 20260510170743 | 65 | 33 | 1.0 | 2.0 | 0.00 | 0.00 | 0.00 | 3 | 1010.7 |
| 20260510170243 | 65 | 27 | 0.0 | 1.0 | 0.00 | 0.00 | 0.00 | 3 | 1010.6 |
| 20260510165742 | 65 | 0 | 0.0 | 0.0 | 0.00 | 0.00 | 0.00 | 3 | 1010.7 |
| 20260510165242 | 65 | 0 | 0.0 | 0.0 | 0.00 | 0.00 | 0.00 | 3 | 1010.8 |
| 20260510164742 | 65 | 0 | 0.0 | 0.0 | 0.00 | 0.00 | 0.00 | 3 | 1010.9 |
| 20260510164241 | 65 | 0 | 0.0 | 0.0 | 0.00 | 0.00 | 0.00 | 3 | 1010.9 |
| 20260510163741 | 65 | 0 | 0.0 | 0.0 | 0.00 | 0.00 | 0.00 | 3 | 1010.7 |
| 20260510163241 | 64 | 0 | 0.0 | 0.0 | 0.00 | 0.00 | 0.00 | 3 | 1010.9 |
| 20260510162740 | 65 | 0 | 0.0 | 0.0 | 0.00 | 0.00 | 0.00 | 3 | 1011.0 |
| 20260510162240 | 65 | 0 | 0.0 | 0.0 | 0.00 | 0.00 | 0.00 | 3 | 1011.2 |
| 20260510161740 | 66 | 0 | 0.0 | 0.0 | 0.00 | 0.00 | 0.00 | 3 | 1011.2 |
| 20260510161239 | 66 | 0 | 0.0 | 0.0 | 0.00 | 0.00 | 0.00 | 3 | 1011.0 |
| 20260510160739 | 66 | 298 | 0.0 | 1.0 | 0.00 | 0.00 | 0.00 | 3 | 1011.1 |
| 20260510160239 | 66 | 264 | 0.0 | 1.0 | 0.00 | 0.00 | 0.00 | 3 | 1011.2 |
| 20260510155738 | 66 | 0 | 0.0 | 0.0 | 0.00 | 0.00 | 0.00 | 3 | 1011.4 |
| 20260510155238 | 66 | 28 | 0.0 | 1.0 | 0.00 | 0.00 | 0.00 | 3 | 1011.3 |
| 20260510154738 | 66 | 195 | 1.0 | 1.0 | 0.00 | 0.00 | 0.00 | 3 | 1011.4 |
| 20260510154237 | 66 | 54 | 0.0 | 1.0 | 0.00 | 0.00 | 0.00 | 3 | 1011.5 |
| 20260510153737 | 66 | 29 | 1.0 | 1.0 | 0.00 | 0.00 | 0.00 | 3 | 1011.6 |
| 20260510153237 | 66 | 262 | 1.0 | 1.0 | 0.00 | 0.00 | 0.00 | 3 | 1011.4 |
| 20260510152736 | 66 | 3 | 0.0 | 1.0 | 0.00 | 0.00 | 0.00 | 3 | 1011.6 |
| 20260510152236 | 66 | 341 | 0.0 | 1.0 | 0.00 | 0.00 | 0.00 | 3 | 1011.5 |
| 20260510151736 | 66 | 0 | 0.0 | 0.0 | 0.00 | 0.00 | 0.00 | 3 | 1011.8 |
| 20260510151235 | 66 | 231 | 1.0 | 3.0 | 0.00 | 0.00 | 0.00 | 3 | 1011.7 |
| 20260510150735 | 66 | 0 | 0.0 | 0.0 | 0.00 | 0.00 | 0.00 | 3 | 1011.6 |
| 20260510150235 | 66 | 4 | 0.0 | 1.0 | 0.00 | 0.00 | 0.00 | 3 | 1011.9 |
| 20260510145734 | 66 | 49 | 1.0 | 2.0 | 0.00 | 0.00 | 0.00 | 3 | 1012.0 |
| 20260510145234 | 66 | 0 | 0.0 | 0.0 | 0.00 | 0.00 | 0.00 | 3 | 1011.8 |
| 20260510144734 | 66 | 6 | 0.0 | 1.0 | 0.00 | 0.00 | 0.00 | 3 | 1011.7 |
| 20260510144233 | 66 | 21 | 0.0 | 1.0 | 0.00 | 0.00 | 0.00 | 3 | 1012.2 |
| 20260510143733 | 66 | 0 | 0.0 | 0.0 | 0.00 | 0.00 | 0.00 | 3 | 1012.0 |
| 20260510143233 | 65 | 0 | 0.0 | 0.0 | 0.00 | 0.00 | 0.00 | 3 | 1012.2 |
| 20260510142733 | 65 | 211 | 2.0 | 2.0 | 0.00 | 0.00 | 0.00 | 3 | 1012.0 |
| 20260510142232 | 65 | 9 | 0.0 | 1.0 | 0.00 | 0.00 | 0.00 | 3 | 1012.3 |
| 20260510141732 | 65 | 191 | 0.0 | 1.0 | 0.00 | 0.00 | 0.00 | 3 | 1012.3 |
| 20260510141231 | 66 | 257 | 1.0 | 2.0 | 0.00 | 0.00 | 0.00 | 3 | 1012.3 |
| 20260510140731 | 66 | 26 | 1.0 | 3.0 | 0.00 | 0.00 | 0.00 | 3 | 1012.6 |
| 20260510140231 | 66 | 1 | 0.0 | 1.0 | 0.00 | 0.00 | 0.00 | 3 | 1012.6 |
| 20260510135731 | 66 | 0 | 1.0 | 2.0 | 0.00 | 0.00 | 0.00 | 3 | 1012.6 |
| 20260510135230 | 66 | 347 | 0.0 | 1.0 | 0.00 | 0.00 | 0.00 | 3 | 1012.5 |
| 20260510134730 | 66 | 0 | 0.0 | 0.0 | 0.00 | 0.00 | 0.00 | 3 | 1012.6 |
| 20260510134230 | 65 | 0 | 0.0 | 0.0 | 0.00 | 0.00 | 0.00 | 3 | 1012.8 |
| 20260510133729 | 65 | 0 | 0.0 | 0.0 | 0.00 | 0.00 | 0.00 | 3 | 1012.9 |
| 20260510133229 | 66 | 0 | 0.0 | 0.0 | 0.00 | 0.00 | 0.00 | 3 | 1013.0 |
| 20260510132729 | 66 | 344 | 2.0 | 2.0 | 0.00 | 0.00 | 0.00 | 3 | 1013.0 |
| 20260510132228 | 66 | 7 | 0.0 | 1.0 | 0.00 | 0.00 | 0.00 | 3 | 1013.2 |
| 20260510131728 | 65 | 7 | 0.0 | 1.0 | 0.00 | 0.00 | 0.00 | 3 | 1013.0 |
| 20260510131228 | 66 | 0 | 0.0 | 0.0 | 0.00 | 0.00 | 0.00 | 3 | 1013.2 |
| 20260510130727 | 66 | 0 | 0.0 | 0.0 | 0.00 | 0.00 | 0.00 | 3 | 1013.0 |
| 20260510130227 | 66 | 5 | 0.0 | 1.0 | 0.00 | 0.00 | 0.00 | 3 | 1013.0 |
| 20260510125727 | 66 | 1 | 0.0 | 1.0 | 0.00 | 0.00 | 0.00 | 3 | 1013.1 |
| 20260510125226 | 66 | 48 | 2.0 | 3.0 | 0.00 | 0.00 | 0.00 | 3 | 1013.2 |
| 20260510124726 | 66 | 13 | 0.0 | 1.0 | 0.00 | 0.00 | 0.00 | 3 | 1013.2 |
| 20260510124226 | 66 | 294 | 0.0 | 1.0 | 0.00 | 0.00 | 0.00 | 3 | 1013.3 |
| 20260510123725 | 65 | 136 | 0.0 | 1.0 | 0.00 | 0.00 | 0.00 | 3 | 1013.2 |
| 20260510123225 | 64 | 279 | 0.0 | 1.0 | 0.00 | 0.00 | 0.00 | 3 | 1013.2 |
| 20260510122725 | 65 | 14 | 1.0 | 3.0 | 0.00 | 0.00 | 0.00 | 3 | 1013.5 |
| 20260510122224 | 66 | 216 | 3.0 | 4.0 | 0.00 | 0.00 | 0.00 | 3 | 1013.6 |
| 20260510121724 | 67 | 0 | 0.0 | 0.0 | 0.00 | 0.00 | 0.00 | 3 | 1013.8 |
| 20260510121224 | 66 | 357 | 0.0 | 1.0 | 0.00 | 0.00 | 0.00 | 3 | 1013.8 |
| 20260510120723 | 65 | 0 | 0.0 | 0.0 | 0.00 | 0.00 | 0.00 | 3 | 1013.8 |
| 20260510120223 | 67 | 59 | 0.0 | 2.0 | 0.00 | 0.00 | 0.00 | 3 | 1013.8 |
| 20260510115723 | 66 | 0 | 0.0 | 0.0 | 0.00 | 0.00 | 0.00 | 3 | 1013.9 |
| 20260510115222 | 66 | 292 | 1.0 | 1.0 | 0.00 | 0.00 | 0.00 | 3 | 1013.9 |
| 20260510114722 | 65 | 0 | 0.0 | 0.0 | 0.00 | 0.00 | 0.00 | 3 | 1014.0 |
| 20260510114222 | 65 | 0 | 0.0 | 0.0 | 0.00 | 0.00 | 0.00 | 3 | 1013.9 |
| 20260510113721 | 66 | 54 | 1.0 | 2.0 | 0.00 | 0.00 | 0.00 | 3 | 1014.1 |
| 20260510113221 | 65 | 39 | 0.0 | 1.0 | 0.00 | 0.00 | 0.00 | 3 | 1014.3 |
| 20260510112721 | 65 | 344 | 1.0 | 1.0 | 0.00 | 0.00 | 0.00 | 3 | 1014.1 |
| 20260510112220 | 66 | 91 | 2.0 | 3.0 | 0.00 | 0.00 | 0.00 | 3 | 1014.1 |
| 20260510111720 | 65 | 258 | 0.0 | 1.0 | 0.00 | 0.00 | 0.00 | 3 | 1014.2 |
| 20260510111220 | 65 | 0 | 0.0 | 0.0 | 0.00 | 0.00 | 0.00 | 3 | 1014.2 |
| 20260510110719 | 63 | 36 | 0.0 | 1.0 | 0.00 | 0.00 | 0.00 | 3 | 1014.2 |
| 20260510110219 | 63 | 318 | 1.0 | 1.0 | 0.00 | 0.00 | 0.00 | 3 | 1014.3 |
| 20260510105719 | 64 | 206 | 1.0 | 2.0 | 0.00 | 0.00 | 0.00 | 3 | 1014.5 |
| 20260510105218 | 64 | 332 | 1.0 | 2.0 | 0.00 | 0.00 | 0.00 | 3 | 1014.5 |
| 20260510104718 | 63 | 350 | 2.0 | 2.0 | 0.00 | 0.00 | 0.00 | 3 | 1014.5 |
| 20260510104218 | 63 | 0 | 0.0 | 0.0 | 0.00 | 0.00 | 0.00 | 3 | 1014.5 |
| 20260510103717 | 64 | 108 | 0.0 | 1.0 | 0.00 | 0.00 | 0.00 | 3 | 1014.7 |
| 20260510103217 | 64 | 123 | 0.0 | 1.0 | 0.00 | 0.00 | 0.00 | 3 | 1014.9 |
| 20260510102717 | 63 | 321 | 0.0 | 1.0 | 0.00 | 0.00 | 0.00 | 3 | 1014.9 |
| 20260510102216 | 64 | 1 | 0.0 | 1.0 | 0.00 | 0.00 | 0.00 | 3 | 1014.9 |
| 20260510101716 | 63 | 0 | 0.0 | 0.0 | 0.00 | 0.00 | 0.00 | 3 | 1015.0 |
| 20260510101216 | 63 | 210 | 1.0 | 3.0 | 0.00 | 0.00 | 0.00 | 3 | 1015.3 |
| 20260510100715 | 63 | 332 | 0.0 | 1.0 | 0.00 | 0.00 | 0.00 | 3 | 1015.3 |
| 20260510100215 | 61 | 5 | 0.0 | 1.0 | 0.00 | 0.00 | 0.00 | 4 | 1015.4 |
| 20260510095715 | 63 | 242 | 1.0 | 2.0 | 0.00 | 0.00 | 0.00 | 3 | 1015.4 |
| 20260510095214 | 63 | 0 | 0.0 | 1.0 | 0.00 | 0.00 | 0.00 | 4 | 1015.6 |
| 20260510094714 | 62 | 35 | 0.0 | 1.0 | 0.00 | 0.00 | 0.00 | 4 | 1015.4 |
| 20260510094214 | 63 | 309 | 1.0 | 1.0 | 0.00 | 0.00 | 0.00 | 3 | 1015.3 |
| 20260510093713 | 62 | 0 | 0.0 | 0.0 | 0.00 | 0.00 | 0.00 | 4 | 1015.4 |
| 20260510093213 | 61 | 0 | 0.0 | 0.0 | 0.00 | 0.00 | 0.00 | 4 | 1015.5 |
| 20260510092713 | 61 | 257 | 0.0 | 1.0 | 0.00 | 0.00 | 0.00 | 4 | 1015.6 |
| 20260510092212 | 61 | 220 | 2.0 | 3.0 | 0.00 | 0.00 | 0.00 | 4 | 1015.4 |
| 20260510091712 | 63 | 207 | 2.0 | 3.0 | 0.00 | 0.00 | 0.00 | 4 | 1015.5 |
| 20260510091212 | 62 | 131 | 1.0 | 1.0 | 0.00 | 0.00 | 0.00 | 4 | 1015.8 |
| 20260510090711 | 61 | 303 | 0.0 | 1.0 | 0.00 | 0.00 | 0.00 | 4 | 1015.7 |
| 20260510090211 | 61 | 312 | 0.0 | 1.0 | 0.00 | 0.00 | 0.00 | 4 | 1015.8 |
| 20260510085711 | 61 | 45 | 0.0 | 1.0 | 0.00 | 0.00 | 0.00 | 4 | 1015.8 |
| 20260510085210 | 61 | 24 | 0.0 | 1.0 | 0.00 | 0.00 | 0.00 | 4 | 1015.9 |
| 20260510084710 | 61 | 249 | 2.0 | 3.0 | 0.00 | 0.00 | 0.00 | 4 | 1015.9 |
| 20260510084210 | 61 | 224 | 1.0 | 2.0 | 0.00 | 0.00 | 0.00 | 4 | 1016.0 |
| 20260510083709 | 60 | 95 | 0.0 | 1.0 | 0.00 | 0.00 | 0.00 | 4 | 1016.3 |
| 20260510083209 | 60 | 31 | 0.0 | 1.0 | 0.00 | 0.00 | 0.00 | 4 | 1016.0 |
| 20260510082709 | 60 | 311 | 1.0 | 2.0 | 0.00 | 0.00 | 0.00 | 4 | 1016.1 |
| 20260510082208 | 61 | 20 | 0.0 | 1.0 | 0.00 | 0.00 | 0.00 | 4 | 1016.3 |
| 20260510081708 | 60 | 117 | 1.0 | 1.0 | 0.00 | 0.00 | 0.00 | 4 | 1016.1 |
| 20260510081208 | 59 | 248 | 0.0 | 1.0 | 0.00 | 0.00 | 0.00 | 4 | 1016.0 |
| 20260510080707 | 60 | 96 | 0.0 | 1.0 | 0.00 | 0.00 | 0.00 | 4 | 1016.1 |
| 20260510080207 | 59 | 0 | 0.0 | 0.0 | 0.00 | 0.00 | 0.00 | 5 | 1016.3 |
| 20260510075707 | 60 | 64 | 0.0 | 1.0 | 0.00 | 0.00 | 0.00 | 4 | 1016.3 |
| 20260510075206 | 60 | 328 | 0.0 | 1.0 | 0.00 | 0.00 | 0.00 | 5 | 1016.7 |
| 20260510074706 | 59 | 0 | 0.0 | 0.0 | 0.00 | 0.00 | 0.00 | 4 | 1016.6 |
| 20260510074206 | 59 | 72 | 0.0 | 1.0 | 0.00 | 0.00 | 0.00 | 4 | 1016.5 |
| 20260510073705 | 59 | 126 | 1.0 | 1.0 | 0.00 | 0.00 | 0.00 | 4 | 1016.6 |
| 20260510073205 | 58 | 356 | 0.0 | 1.0 | 0.00 | 0.00 | 0.00 | 4 | 1016.7 |
| 20260510072705 | 58 | 324 | 0.0 | 1.0 | 0.00 | 0.00 | 0.00 | 5 | 1016.6 |
| 20260510072204 | 57 | 220 | 0.0 | 1.0 | 0.00 | 0.00 | 0.00 | 5 | 1016.8 |
| 20260510071704 | 58 | 307 | 0.0 | 2.0 | 0.00 | 0.00 | 0.00 | 5 | 1016.8 |
| 20260510071204 | 57 | 0 | 0.0 | 0.0 | 0.00 | 0.00 | 0.00 | 5 | 1016.7 |
| 20260510070703 | 57 | 126 | 1.0 | 1.0 | 0.00 | 0.00 | 0.00 | 5 | 1016.7 |
| 20260510070203 | 57 | 0 | 0.0 | 0.0 | 0.00 | 0.00 | 0.00 | 5 | 1016.8 |
| 20260510065703 | 57 | 0 | 0.0 | 0.0 | 0.00 | 0.00 | 0.00 | 5 | 1017.0 |
| 20260510065202 | 57 | 0 | 0.0 | 0.0 | 0.00 | 0.00 | 0.00 | 5 | 1016.9 |
| 20260510064702 | 57 | 262 | 2.0 | 4.0 | 0.00 | 0.00 | 0.00 | 5 | 1016.8 |
| 20260510064202 | 56 | 104 | 0.0 | 1.0 | 0.00 | 0.00 | 0.00 | 5 | 1016.9 |
| 20260510063701 | 57 | 207 | 1.0 | 2.0 | 0.00 | 0.00 | 0.00 | 5 | 1017.2 |
| 20260510063201 | 57 | 131 | 0.0 | 1.0 | 0.00 | 0.00 | 0.00 | 5 | 1017.1 |
| 20260510062701 | 55 | 167 | 0.0 | 1.0 | 0.00 | 0.00 | 0.00 | 5 | 1017.1 |
| 20260510062200 | 55 | 195 | 1.0 | 2.0 | 0.00 | 0.00 | 0.00 | 5 | 1017.2 |
| 20260510061700 | 55 | 246 | 1.0 | 2.0 | 0.00 | 0.00 | 0.00 | 5 | 1017.2 |
| 20260510061200 | 55 | 0 | 0.0 | 0.0 | 0.00 | 0.00 | 0.00 | 5 | 1017.3 |
| 20260510060659 | 55 | 348 | 0.0 | 1.0 | 0.00 | 0.00 | 0.00 | 6 | 1017.4 |
| 20260510060159 | 54 | 0 | 0.0 | 0.0 | 0.00 | 0.00 | 0.00 | 6 | 1017.3 |
| 20260510055659 | 54 | 25 | 0.0 | 1.0 | 0.00 | 0.00 | 0.00 | 6 | 1017.3 |
| 20260510055158 | 54 | 121 | 0.0 | 1.0 | 0.00 | 0.00 | 0.00 | 6 | 1017.4 |
| 20260510054658 | 53 | 0 | 0.0 | 0.0 | 0.00 | 0.00 | 0.00 | 6 | 1017.5 |
| 20260510054158 | 51 | 0 | 0.0 | 0.0 | 0.00 | 0.00 | 0.00 | 6 | 1017.6 |
| 20260510053657 | 50 | 21 | 0.0 | 1.0 | 0.00 | 0.00 | 0.00 | 6 | 1017.6 |
| 20260510053157 | 49 | 0 | 0.0 | 0.0 | 0.00 | 0.00 | 0.00 | 7 | 1017.7 |
| 20260510052657 | 49 | 326 | 0.0 | 1.0 | 0.00 | 0.00 | 0.00 | 7 | 1017.6 |
| 20260510052156 | 48 | 0 | 0.0 | 0.0 | 0.00 | 0.00 | 0.00 | 7 | 1017.6 |
| 20260510051656 | 48 | 336 | 0.0 | 1.0 | 0.00 | 0.00 | 0.00 | 7 | 1017.7 |
| 20260510051156 | 48 | 54 | 0.0 | 1.0 | 0.00 | 0.00 | 0.00 | 7 | 1017.7 |
| 20260510050655 | 47 | 0 | 0.0 | 0.0 | 0.00 | 0.00 | 0.00 | 7 | 1017.7 |
| 20260510050155 | 47 | 342 | 0.0 | 1.0 | 0.00 | 0.00 | 0.00 | 7 | 1017.8 |
| 20260510045655 | 47 | 0 | 0.0 | 0.0 | 0.00 | 0.00 | 0.00 | 7 | 1017.7 |
| 20260510045154 | 46 | 0 | 0.0 | 0.0 | 0.00 | 0.00 | 0.00 | 7 | 1017.6 |
| 20260510044654 | 46 | 0 | 0.0 | 0.0 | 0.00 | 0.00 | 0.00 | 8 | 1018.0 |
| 20260510044154 | 46 | 0 | 0.0 | 0.0 | 0.00 | 0.00 | 0.00 | 8 | 1018.0 |
| 20260510043653 | 45 | 53 | 0.0 | 1.0 | 0.00 | 0.00 | 0.00 | 8 | 1018.0 |
| 20260510043153 | 45 | 0 | 0.0 | 0.0 | 0.00 | 0.00 | 0.00 | 8 | 1017.8 |
| 20260510042653 | 45 | 0 | 0.0 | 0.0 | 0.00 | 0.00 | 0.00 | 8 | 1018.1 |
| 20260510042152 | 45 | 0 | 0.0 | 0.0 | 0.00 | 0.00 | 0.00 | 8 | 1017.9 |
| 20260510041652 | 44 | 0 | 0.0 | 0.0 | 0.00 | 0.00 | 0.00 | 8 | 1017.9 |
| 20260510041152 | 44 | 0 | 0.0 | 0.0 | 0.00 | 0.00 | 0.00 | 8 | 1017.8 |
| 20260510040652 | 43 | 0 | 0.0 | 0.0 | 0.00 | 0.00 | 0.00 | 8 | 1018.0 |
| 20260510040151 | 43 | 0 | 0.0 | 0.0 | 0.00 | 0.00 | 0.00 | 8 | 1018.1 |
| 20260510035651 | 42 | 0 | 0.0 | 0.0 | 0.00 | 0.00 | 0.00 | 8 | 1018.0 |
| 20260510035150 | 42 | 0 | 0.0 | 0.0 | 0.00 | 0.00 | 0.00 | 8 | 1018.1 |
| 20260510034650 | 42 | 0 | 0.0 | 0.0 | 0.00 | 0.00 | 0.00 | 8 | 1018.0 |
| 20260510034150 | 42 | 0 | 0.0 | 0.0 | 0.00 | 0.00 | 0.00 | 8 | 1018.1 |
| 20260510033650 | 42 | 0 | 0.0 | 0.0 | 0.00 | 0.00 | 0.00 | 9 | 1018.1 |
| 20260510033149 | 42 | 0 | 0.0 | 0.0 | 0.00 | 0.00 | 0.00 | 9 | 1018.3 |
| 20260510032649 | 41 | 0 | 0.0 | 0.0 | 0.00 | 0.00 | 0.00 | 9 | 1018.4 |
| 20260510032149 | 41 | 0 | 0.0 | 0.0 | 0.00 | 0.00 | 0.00 | 9 | 1018.2 |
| 20260510031648 | 41 | 0 | 0.0 | 0.0 | 0.00 | 0.00 | 0.00 | 8 | 1018.3 |
| 20260510031148 | 41 | 0 | 0.0 | 0.0 | 0.00 | 0.00 | 0.00 | 8 | 1018.4 |
| 20260510030648 | 42 | 0 | 0.0 | 0.0 | 0.00 | 0.00 | 0.00 | 8 | 1018.4 |
| 20260510030147 | 42 | 0 | 0.0 | 0.0 | 0.00 | 0.00 | 0.00 | 8 | 1018.3 |
| 20260510025647 | 42 | 0 | 0.0 | 0.0 | 0.00 | 0.00 | 0.00 | 8 | 1018.3 |
| 20260510025147 | 41 | 0 | 0.0 | 0.0 | 0.00 | 0.00 | 0.00 | 8 | 1018.3 |
| 20260510024646 | 41 | 0 | 0.0 | 0.0 | 0.00 | 0.00 | 0.00 | 8 | 1018.2 |
| 20260510024146 | 42 | 0 | 0.0 | 0.0 | 0.00 | 0.00 | 0.00 | 8 | 1018.1 |
| 20260510023646 | 42 | 0 | 0.0 | 0.0 | 0.00 | 0.00 | 0.00 | 8 | 1018.1 |
| 20260510023145 | 42 | 0 | 0.0 | 0.0 | 0.00 | 0.00 | 0.00 | 8 | 1018.1 |
| 20260510022645 | 42 | 0 | 0.0 | 0.0 | 0.00 | 0.00 | 0.00 | 8 | 1018.5 |
| 20260510022145 | 42 | 0 | 0.0 | 0.0 | 0.00 | 0.00 | 0.00 | 8 | 1018.3 |
| 20260510021644 | 42 | 0 | 0.0 | 0.0 | 0.00 | 0.00 | 0.00 | 8 | 1018.4 |
| 20260510021144 | 42 | 0 | 0.0 | 0.0 | 0.00 | 0.00 | 0.00 | 8 | 1018.2 |
| 20260510020644 | 42 | 0 | 0.0 | 0.0 | 0.00 | 0.00 | 0.00 | 8 | 1018.4 |
| 20260510020143 | 42 | 0 | 0.0 | 0.0 | 0.00 | 0.00 | 0.00 | 8 | 1018.5 |
| 20260510015643 | 42 | 0 | 0.0 | 0.0 | 0.00 | 0.00 | 0.00 | 8 | 1018.6 |
| 20260510015143 | 42 | 0 | 0.0 | 0.0 | 0.00 | 0.00 | 0.00 | 8 | 1018.4 |
| 20260510014642 | 42 | 0 | 0.0 | 0.0 | 0.00 | 0.00 | 0.00 | 8 | 1018.4 |
| 20260510014142 | 42 | 0 | 0.0 | 0.0 | 0.00 | 0.00 | 0.00 | 8 | 1018.5 |
| 20260510013642 | 42 | 0 | 0.0 | 0.0 | 0.00 | 0.00 | 0.00 | 8 | 1018.5 |
| 20260510013141 | 42 | 0 | 0.0 | 0.0 | 0.00 | 0.00 | 0.00 | 8 | 1018.6 |
| 20260510012641 | 43 | 0 | 0.0 | 0.0 | 0.00 | 0.00 | 0.00 | 8 | 1018.6 |
| 20260510012141 | 43 | 0 | 0.0 | 0.0 | 0.00 | 0.00 | 0.00 | 8 | 1018.5 |
| 20260510011640 | 43 | 0 | 0.0 | 0.0 | 0.00 | 0.00 | 0.00 | 8 | 1018.7 |
| 20260510011140 | 43 | 0 | 0.0 | 0.0 | 0.00 | 0.00 | 0.00 | 8 | 1018.5 |
| 20260510010640 | 43 | 0 | 0.0 | 0.0 | 0.00 | 0.00 | 0.00 | 8 | 1018.8 |
| 20260510010139 | 43 | 0 | 0.0 | 0.0 | 0.00 | 0.00 | 0.00 | 8 | 1018.9 |
| 20260510005639 | 43 | 0 | 0.0 | 0.0 | 0.00 | 0.00 | 0.00 | 8 | 1018.8 |
| 20260510005139 | 43 | 0 | 0.0 | 0.0 | 0.00 | 0.00 | 0.00 | 8 | 1018.9 |
| 20260510004638 | 43 | 0 | 0.0 | 0.0 | 0.00 | 0.00 | 0.00 | 8 | 1018.6 |
| 20260510004138 | 43 | 0 | 0.0 | 0.0 | 0.00 | 0.00 | 0.00 | 8 | 1018.6 |
| 20260510003638 | 43 | 0 | 0.0 | 0.0 | 0.00 | 0.00 | 0.00 | 8 | 1018.8 |
| 20260510003137 | 43 | 0 | 0.0 | 0.0 | 0.00 | 0.00 | 0.00 | 8 | 1019.1 |
| 20260510002637 | 43 | 0 | 0.0 | 0.0 | 0.00 | 0.00 | 0.00 | 8 | 1018.9 |
| 20260510002136 | 43 | 0 | 0.0 | 0.0 | 0.00 | 0.00 | 0.00 | 8 | 1019.0 |
| 20260510001636 | 43 | 0 | 0.0 | 0.0 | 0.00 | 0.00 | 0.00 | 8 | 1018.7 |
| 20260510001136 | 43 | 0 | 0.0 | 0.0 | 0.00 | 0.00 | 0.00 | 8 | 1018.9 |
| 20260510000635 | 43 | 0 | 0.0 | 0.0 | 0.00 | 0.00 | 0.00 | 8 | 1019.0 |
| 20260510000135 | 43 | 0 | 0.0 | 0.0 | 0.00 | 0.00 | 0.00 | 8 | 1018.7 |
| 20260509235635 | 43 | 0 | 0.0 | 0.0 | 0.00 | 0.00 | 0.00 | 8 | 1019.0 |
| 20260509235134 | 43 | 0 | 0.0 | 0.0 | 0.00 | 0.00 | 0.00 | 8 | 1019.3 |
| 20260509234634 | 43 | 0 | 0.0 | 0.0 | 0.00 | 0.00 | 0.00 | 8 | 1019.1 |
| 20260509234134 | 43 | 0 | 0.0 | 0.0 | 0.00 | 0.00 | 0.00 | 8 | 1019.1 |
| 20260509233633 | 43 | 0 | 0.0 | 0.0 | 0.00 | 0.00 | 0.00 | 8 | 1019.2 |
| 20260509233133 | 43 | 0 | 0.0 | 0.0 | 0.00 | 0.00 | 0.00 | 8 | 1019.1 |
| 20260509232633 | 43 | 0 | 0.0 | 0.0 | 0.00 | 0.00 | 0.00 | 8 | 1019.4 |
| 20260509232132 | 43 | 0 | 0.0 | 0.0 | 0.00 | 0.00 | 0.00 | 8 | 1019.3 |
| 20260509231632 | 44 | 0 | 0.0 | 0.0 | 0.00 | 0.00 | 0.00 | 8 | 1019.1 |
| 20260509231132 | 44 | 0 | 0.0 | 0.0 | 0.00 | 0.00 | 0.00 | 8 | 1019.3 |
| 20260509230631 | 44 | 0 | 0.0 | 0.0 | 0.00 | 0.00 | 0.00 | 8 | 1019.3 |
| 20260509230131 | 44 | 0 | 0.0 | 0.0 | 0.00 | 0.00 | 0.00 | 8 | 1019.3 |
| 20260509225631 | 44 | 0 | 0.0 | 0.0 | 0.00 | 0.00 | 0.00 | 8 | 1019.3 |
| 20260509225130 | 44 | 0 | 0.0 | 0.0 | 0.00 | 0.00 | 0.00 | 8 | 1019.2 |
| 20260509224630 | 44 | 0 | 0.0 | 0.0 | 0.00 | 0.00 | 0.00 | 8 | 1019.1 |
| 20260509224130 | 44 | 0 | 0.0 | 0.0 | 0.00 | 0.00 | 0.00 | 8 | 1019.3 |
| 20260509223629 | 44 | 0 | 0.0 | 0.0 | 0.00 | 0.00 | 0.00 | 8 | 1019.4 |
| 20260509223129 | 44 | 0 | 0.0 | 0.0 | 0.00 | 0.00 | 0.00 | 8 | 1019.4 |
| 20260509222629 | 44 | 0 | 0.0 | 0.0 | 0.00 | 0.00 | 0.00 | 8 | 1019.3 |
| 20260509222128 | 45 | 0 | 0.0 | 0.0 | 0.00 | 0.00 | 0.00 | 8 | 1019.3 |
| 20260509221628 | 45 | 0 | 0.0 | 0.0 | 0.00 | 0.00 | 0.00 | 8 | 1019.3 |
| 20260509221128 | 45 | 0 | 0.0 | 0.0 | 0.00 | 0.00 | 0.00 | 8 | 1019.5 |
| 20260509220627 | 45 | 0 | 0.0 | 0.0 | 0.00 | 0.00 | 0.00 | 8 | 1019.4 |
| 20260509220127 | 45 | 0 | 0.0 | 0.0 | 0.00 | 0.00 | 0.00 | 8 | 1019.4 |
| 20260509215627 | 45 | 0 | 0.0 | 0.0 | 0.00 | 0.00 | 0.00 | 8 | 1019.4 |
| 20260509215126 | 45 | 0 | 0.0 | 0.0 | 0.00 | 0.00 | 0.00 | 8 | 1019.4 |
| 20260509214626 | 45 | 0 | 0.0 | 0.0 | 0.00 | 0.00 | 0.00 | 8 | 1019.5 |
| 20260509214126 | 45 | 0 | 0.0 | 0.0 | 0.00 | 0.00 | 0.00 | 8 | 1019.3 |
| 20260509213625 | 44 | 0 | 0.0 | 0.0 | 0.00 | 0.00 | 0.00 | 8 | 1019.5 |
| 20260509213125 | 44 | 0 | 0.0 | 0.0 | 0.00 | 0.00 | 0.00 | 8 | 1019.4 |
| 20260509212625 | 44 | 0 | 0.0 | 0.0 | 0.00 | 0.00 | 0.00 | 8 | 1019.4 |
| 20260509212124 | 44 | 0 | 0.0 | 0.0 | 0.00 | 0.00 | 0.00 | 8 | 1019.6 |
| 20260509211624 | 44 | 0 | 0.0 | 0.0 | 0.00 | 0.00 | 0.00 | 8 | 1019.7 |
| 20260509211124 | 44 | 0 | 0.0 | 0.0 | 0.00 | 0.00 | 0.00 | 8 | 1019.5 |
| 20260509210623 | 45 | 0 | 0.0 | 0.0 | 0.00 | 0.00 | 0.00 | 8 | 1019.6 |
| 20260509210123 | 45 | 0 | 0.0 | 0.0 | 0.00 | 0.00 | 0.00 | 8 | 1019.6 |
| 20260509205623 | 45 | 0 | 0.0 | 0.0 | 0.00 | 0.00 | 0.00 | 8 | 1019.7 |
| 20260509205122 | 45 | 0 | 0.0 | 0.0 | 0.00 | 0.00 | 0.00 | 8 | 1019.6 |
| 20260509204622 | 45 | 0 | 0.0 | 0.0 | 0.00 | 0.00 | 0.00 | 8 | 1019.6 |
| 20260509204122 | 45 | 0 | 0.0 | 0.0 | 0.00 | 0.00 | 0.00 | 8 | 1019.6 |
| 20260509203621 | 45 | 0 | 0.0 | 0.0 | 0.00 | 0.00 | 0.00 | 8 | 1019.6 |
| 20260509203121 | 46 | 0 | 0.0 | 0.0 | 0.00 | 0.00 | 0.00 | 8 | 1019.8 |
| 20260509202621 | 46 | 0 | 0.0 | 0.0 | 0.00 | 0.00 | 0.00 | 8 | 1019.6 |
| 20260509202120 | 46 | 0 | 0.0 | 0.0 | 0.00 | 0.00 | 0.00 | 7 | 1019.7 |
| 20260509201620 | 46 | 0 | 0.0 | 0.0 | 0.00 | 0.00 | 0.00 | 7 | 1019.7 |